GW3646 Weather Reports


Display with metric or nautical units.
time (UTC)temp
F
wind
direction
speed
MPH
gust
MPH
rain 1hr
in
rain 24hr
in
rain mn
in
humidity
%
barometer
mb
20260902180010 97 286 3.0 11.0 0.00 0.00 0.00 43 1015.0
20260902175504 97 257 3.0 9.0 0.00 0.00 0.00 42 1015.0
20260902175010 96 271 2.0 8.0 0.00 0.00 0.00 42 1015.0
20260902174516 96 290 2.0 11.0 0.00 0.00 0.00 43 1015.2
20260902174010 96 255 3.0 11.0 0.00 0.00 0.00 42 1015.3
20260902173508 96 198 3.0 11.0 0.00 0.00 0.00 44 1015.3
20260902173022 96 250 2.0 9.0 0.00 0.00 0.00 45 1015.3
20260902172511 95 340 4.0 9.0 0.00 0.00 0.00 43 1015.4
20260902172012 95 248 2.0 9.0 0.00 0.00 0.00 45 1015.4
20260902171506 95 257 4.0 11.0 0.00 0.00 0.00 46 1015.5
20260902171006 94 126 3.0 11.0 0.00 0.00 0.00 46 1015.5
20260902170503 94 309 3.0 13.0 0.00 0.00 0.00 46 1015.6
20260902170007 94 38 2.0 13.0 0.00 0.00 0.00 46 1015.6
20260902165505 94 238 2.0 8.0 0.00 0.00 0.00 49 1015.7
20260902165005 93 146 3.0 8.0 0.00 0.00 0.00 47 1015.8
20260902164511 93 269 2.0 9.0 0.00 0.00 0.00 48 1015.8
20260902164010 93 44 3.0 10.0 0.00 0.00 0.00 48 1015.9
20260902163506 93 246 3.0 12.0 0.00 0.00 0.00 49 1015.9
20260902163015 92 256 4.0 12.0 0.00 0.00 0.00 48 1016.0
20260902162507 93 252 3.0 9.0 0.00 0.00 0.00 49 1016.0
20260902162009 92 202 2.0 10.0 0.00 0.00 0.00 51 1016.0
20260902161527 92 205 2.0 10.0 0.00 0.00 0.00 50 1016.1
20260902161011 91 156 1.0 9.0 0.00 0.00 0.00 52 1016.1
20260902160516 91 232 3.0 9.0 0.00 0.00 0.00 52 1016.1
20260902160027 91 263 2.0 10.0 0.00 0.00 0.00 52 1016.2
20260902155504 90 107 3.0 10.0 0.00 0.00 0.00 52 1016.1
20260902155004 90 258 2.0 8.0 0.00 0.00 0.00 52 1016.2
20260902154522 90 269 2.0 8.0 0.00 0.00 0.00 53 1016.1
20260902154006 89 273 2.0 11.0 0.00 0.00 0.00 53 1016.2
20260902153508 89 286 2.0 11.0 0.00 0.00 0.00 54 1016.2
20260902153022 89 203 4.0 11.0 0.00 0.00 0.00 54 1016.2
20260902152507 88 172 1.0 12.0 0.00 0.00 0.00 55 1016.2
20260902152009 88 317 4.0 12.0 0.00 0.00 0.00 55 1016.2
20260902151521 88 244 3.0 10.0 0.00 0.00 0.00 55 1016.2
20260902151009 88 267 2.0 10.0 0.00 0.00 0.00 57 1016.2
20260902150512 87 223 3.0 10.0 0.00 0.00 0.00 56 1016.2
20260902150026 87 236 2.0 10.0 0.00 0.00 0.00 57 1016.1
20260902145513 87 352 3.0 10.0 0.00 0.00 0.00 56 1016.1
20260902145014 86 262 1.0 10.0 0.00 0.00 0.00 58 1016.1
20260902144538 86 257 2.0 6.0 0.00 0.00 0.00 59 1016.1
20260902144003 85 215 2.0 9.0 0.00 0.00 0.00 59 1016.2
20260902143504 85 248 2.0 9.0 0.00 0.00 0.00 59 1016.2
20260902143014 84 290 1.0 6.0 0.00 0.00 0.00 61 1016.2
20260902142507 84 263 1.0 6.0 0.00 0.00 0.00 62 1016.1
20260902142008 83 288 1.0 6.0 0.00 0.00 0.00 63 1016.1
20260902141518 83 242 1.0 7.0 0.00 0.00 0.00 63 1016.2
20260902141009 82 265 1.0 7.0 0.00 0.00 0.00 65 1016.2
20260902140510 81 240 2.0 7.0 0.00 0.00 0.00 65 1016.3
20260902140022 81 271 0.0 8.0 0.00 0.00 0.00 66 1016.2
20260902135511 80 271 1.0 8.0 0.00 0.00 0.00 67 1016.2
20260902135013 80 289 0.0 8.0 0.00 0.00 0.00 68 1016.1
20260902134530 79 256 2.0 8.0 0.00 0.00 0.00 69 1016.2
20260902134015 78 182 2.0 4.0 0.00 0.00 0.00 72 1016.1
20260902133515 76 165 1.0 4.0 0.00 0.00 0.00 74 1016.2
20260902133029 75 187 0.0 2.0 0.00 0.00 0.00 76 1016.2
20260902132503 74 187 0.0 2.0 0.00 0.00 0.00 78 1016.2
20260902132007 73 187 0.0 2.0 0.00 0.00 0.00 80 1016.2
20260902131515 72 202 0.0 1.0 0.00 0.00 0.00 81 1016.2
20260902131007 71 202 0.0 1.0 0.00 0.00 0.00 83 1016.1
20260902130507 71 202 0.0 0.0 0.00 0.00 0.00 85 1016.0
20260902130024 71 202 0.0 0.0 0.00 0.00 0.00 85 1016.0
20260902125512 70 202 0.0 0.0 0.00 0.00 0.00 85 1016.0
20260902125012 70 202 0.0 0.0 0.00 0.00 0.00 85 1016.0
20260902124527 70 202 0.0 0.0 0.00 0.00 0.00 84 1016.0
20260902124011 70 202 0.0 0.0 0.00 0.00 0.00 83 1015.9
20260902123515 70 202 0.0 0.0 0.00 0.00 0.00 82 1015.8
20260902123039 70 202 0.0 0.0 0.00 0.00 0.00 82 1015.9
20260902122515 70 202 0.0 0.0 0.00 0.00 0.00 81 1015.8
20260902122015 70 202 0.0 0.0 0.00 0.00 0.00 81 1015.8
20260902121532 70 202 0.0 0.0 0.00 0.00 0.00 81 1015.7
20260902121009 70 202 0.0 0.0 0.00 0.00 0.00 81 1015.7
20260902120507 70 202 0.0 0.0 0.00 0.00 0.00 80 1015.6
20260902120019 70 202 0.0 0.0 0.00 0.00 0.00 80 1015.6
20260902115509 70 202 0.0 0.0 0.00 0.00 0.00 79 1015.6
20260902115010 70 202 0.0 0.0 0.00 0.00 0.00 79 1015.5
20260902114524 70 202 0.0 0.0 0.00 0.00 0.00 80 1015.5
20260902114013 70 202 0.0 0.0 0.00 0.00 0.00 80 1015.4
20260902113513 70 202 0.0 0.0 0.00 0.00 0.00 79 1015.4
20260902113027 70 202 0.0 0.0 0.00 0.00 0.00 78 1015.3
20260902112513 70 202 0.0 0.0 0.00 0.00 0.00 78 1015.3
20260902112020 70 202 0.0 0.0 0.00 0.00 0.00 78 1015.2
20260902111541 70 202 0.0 0.0 0.00 0.00 0.00 77 1015.2
20260902111017 70 202 0.0 0.0 0.00 0.00 0.00 77 1015.3
20260902110515 71 202 0.0 0.0 0.00 0.00 0.00 77 1015.3
20260902110035 71 202 0.0 0.0 0.00 0.00 0.00 77 1015.2
20260902105506 71 202 0.0 0.0 0.00 0.00 0.00 76 1015.2
20260902105006 71 202 0.0 0.0 0.00 0.00 0.00 76 1015.2
20260902104522 71 202 0.0 0.0 0.00 0.00 0.00 76 1015.2
20260902104010 71 202 0.0 0.0 0.00 0.00 0.00 76 1015.3
20260902103510 71 202 0.0 0.0 0.00 0.00 0.00 75 1015.3
20260902103027 71 202 0.0 0.0 0.00 0.00 0.00 75 1015.1
20260902102513 72 202 0.0 0.0 0.00 0.00 0.00 74 1015.1
20260902102013 72 202 0.0 0.0 0.00 0.00 0.00 74 1015.0
20260902101530 72 202 0.0 0.0 0.00 0.00 0.00 74 1015.0
20260902101018 72 202 0.0 0.0 0.00 0.00 0.00 74 1015.1
20260902100514 72 202 0.0 0.0 0.00 0.00 0.00 73 1015.0
20260902100032 73 202 0.0 0.0 0.00 0.00 0.00 72 1015.0
20260902095513 73 202 0.0 0.0 0.00 0.00 0.00 71 1015.0
20260902095018 73 202 0.0 0.0 0.00 0.00 0.00 71 1014.9
20260902094534 73 202 0.0 0.0 0.00 0.00 0.00 71 1015.0
20260902094010 73 202 0.0 0.0 0.00 0.00 0.00 71 1015.0
20260902093513 73 202 0.0 0.0 0.00 0.00 0.00 71 1015.0
20260902093025 73 202 0.0 0.0 0.00 0.00 0.00 71 1014.9
20260902092510 73 202 0.0 0.0 0.00 0.00 0.00 71 1014.9
20260902092013 73 202 0.0 0.0 0.00 0.00 0.00 71 1014.9
20260902091528 73 202 0.0 0.0 0.00 0.00 0.00 70 1015.0
20260902091012 74 202 0.0 0.0 0.00 0.00 0.00 70 1014.8
20260902090503 74 202 0.0 0.0 0.00 0.00 0.00 70 1014.9
20260902090009 74 202 0.0 0.0 0.00 0.00 0.00 69 1014.9
20260902085504 74 202 0.0 0.0 0.00 0.00 0.00 69 1014.7
20260902085004 75 202 0.0 0.0 0.00 0.00 0.00 68 1014.8
20260902084514 75 202 0.0 0.0 0.00 0.00 0.00 67 1014.9
20260902084008 75 202 0.0 0.0 0.00 0.00 0.00 67 1014.7
20260902083507 75 202 0.0 0.0 0.00 0.00 0.00 66 1014.8
20260902083018 76 202 0.0 0.0 0.00 0.00 0.00 66 1014.7
20260902082508 76 202 0.0 0.0 0.00 0.00 0.00 65 1014.8
20260902082011 76 202 0.0 0.0 0.00 0.00 0.00 65 1014.7
20260902081525 76 202 0.0 0.0 0.00 0.00 0.00 64 1014.7
20260902081004 77 202 0.0 0.0 0.00 0.00 0.00 64 1014.7
20260902080503 77 202 0.0 0.0 0.00 0.00 0.00 63 1014.7
20260902080004 77 202 0.0 0.0 0.00 0.00 0.00 63 1014.7
20260902075504 77 202 0.0 0.0 0.00 0.00 0.00 63 1014.7
20260902075004 77 202 0.0 0.0 0.00 0.00 0.00 62 1014.7
20260902074512 77 202 0.0 0.0 0.00 0.00 0.00 62 1014.7
20260902074003 77 202 0.0 1.0 0.00 0.00 0.00 62 1014.6
20260902073508 78 202 0.0 1.0 0.00 0.00 0.00 62 1014.6
20260902073016 78 202 0.0 1.0 0.00 0.00 0.00 62 1014.6
20260902072508 78 202 0.0 0.0 0.00 0.00 0.00 62 1014.7
20260902072008 78 202 0.0 1.0 0.00 0.00 0.00 62 1014.7
20260902071523 78 202 0.0 1.0 0.00 0.00 0.00 61 1014.7
20260902071013 78 202 0.0 0.0 0.00 0.00 0.00 61 1014.6
20260902070512 78 202 0.0 1.0 0.00 0.00 0.00 61 1014.7
20260902070029 78 202 0.0 1.0 0.00 0.00 0.00 61 1014.6
20260902065513 78 202 0.0 1.0 0.00 0.00 0.00 61 1014.7
20260902065005 78 146 0.0 0.0 0.00 0.00 0.00 61 1014.7
20260902064508 78 146 0.0 0.0 0.00 0.00 0.00 61 1014.7
20260902064003 78 146 0.0 0.0 0.00 0.00 0.00 61 1014.7
20260902063504 78 146 0.0 0.0 0.00 0.00 0.00 60 1014.7
20260902063017 78 169 0.0 1.0 0.00 0.00 0.00 60 1014.7
20260902062510 78 169 0.0 1.0 0.00 0.00 0.00 61 1014.7
20260902062007 79 169 0.0 1.0 0.00 0.00 0.00 60 1014.6
20260902061523 79 169 0.0 0.0 0.00 0.00 0.00 60 1014.7
20260902061013 79 169 0.0 5.0 0.00 0.00 0.00 60 1014.6
20260902060510 79 169 0.0 5.0 0.00 0.00 0.00 59 1014.6
20260902060025 79 194 0.0 0.0 0.00 0.00 0.00 59 1014.6
20260902055513 79 194 0.0 0.0 0.00 0.00 0.00 58 1014.6
20260902055013 80 319 0.0 0.0 0.00 0.00 0.00 58 1014.6
20260902054534 80 297 0.0 1.0 0.00 0.00 0.00 58 1014.6
20260902054018 80 297 0.0 1.0 0.00 0.00 0.00 57 1014.5
20260902053502 80 292 0.0 1.0 0.00 0.00 0.00 57 1014.5
20260902053012 80 315 0.0 1.0 0.00 0.00 0.00 57 1014.5
20260902052507 80 281 0.0 0.0 0.00 0.00 0.00 57 1014.6
20260902052007 80 281 0.0 0.0 0.00 0.00 0.00 57 1014.6
20260902051516 80 281 0.0 0.0 0.00 0.00 0.00 57 1014.5
20260902051009 80 267 0.0 2.0 0.00 0.00 0.00 57 1014.6
20260902050509 80 267 0.0 2.0 0.00 0.00 0.00 58 1014.6
20260902050050 79 265 0.0 3.0 0.00 0.00 0.00 59 1014.6
20260902045510 79 306 0.0 3.0 0.00 0.00 0.00 59 1014.6
20260902045012 79 109 0.0 0.0 0.00 0.00 0.00 59 1014.6
20260902044529 79 109 0.0 0.0 0.00 0.00 0.00 59 1014.6
20260902044015 79 111 0.0 0.0 0.00 0.00 0.00 59 1014.5
20260902043515 79 111 0.0 0.0 0.00 0.00 0.00 59 1014.5
20260902043033 79 225 0.0 0.0 0.00 0.00 0.00 57 1014.5
20260902042516 79 225 0.0 0.0 0.00 0.00 0.00 57 1014.6
20260902042004 79 225 0.0 1.0 0.00 0.00 0.00 57 1014.5
20260902041512 79 225 0.0 2.0 0.00 0.00 0.00 56 1014.5
20260902041006 79 225 0.0 2.0 0.00 0.00 0.00 56 1014.5
20260902040507 79 225 0.0 0.0 0.00 0.00 0.00 55 1014.6
20260902040020 80 225 0.0 0.0 0.00 0.00 0.00 55 1014.5
20260902035510 80 225 0.0 0.0 0.00 0.00 0.00 54 1014.5
20260902035010 80 225 0.0 0.0 0.00 0.00 0.00 54 1014.5
20260902034525 80 225 0.0 0.0 0.00 0.00 0.00 53 1014.5
20260902034012 80 238 0.0 1.0 0.00 0.00 0.00 53 1014.5
20260902033512 80 238 0.0 2.0 0.00 0.00 0.00 53 1014.5
20260902033030 80 238 0.0 2.0 0.00 0.00 0.00 52 1014.4
20260902032519 80 209 0.0 2.0 0.00 0.00 0.00 52 1014.5
20260902032015 80 275 0.0 1.0 0.00 0.00 0.00 52 1014.4
20260902031532 80 269 0.0 0.0 0.00 0.00 0.00 52 1014.4
20260902031019 80 269 0.0 0.0 0.00 0.00 0.00 52 1014.3
20260902030507 80 269 0.0 0.0 0.00 0.00 0.00 52 1014.3
20260902030016 80 269 0.0 0.0 0.00 0.00 0.00 51 1014.3
20260902025509 81 269 0.0 0.0 0.00 0.00 0.00 51 1014.2
20260902025011 81 269 0.0 0.0 0.00 0.00 0.00 50 1014.2
20260902024523 81 269 0.0 0.0 0.00 0.00 0.00 51 1014.1
20260902024010 81 269 0.0 0.0 0.00 0.00 0.00 50 1014.1
20260902023512 81 269 0.0 0.0 0.00 0.00 0.00 49 1014.0
20260902023028 82 269 0.0 0.0 0.00 0.00 0.00 49 1014.0
20260902022512 82 269 0.0 0.0 0.00 0.00 0.00 49 1013.9
20260902022016 82 269 0.0 0.0 0.00 0.00 0.00 48 1013.7
20260902021530 83 269 0.0 0.0 0.00 0.00 0.00 47 1013.7
20260902021015 83 269 0.0 0.0 0.00 0.00 0.00 48 1013.7
20260902020515 83 269 0.0 0.0 0.00 0.00 0.00 47 1013.6
20260902020033 84 269 0.0 1.0 0.00 0.00 0.00 46 1013.5
20260902015515 84 269 0.0 1.0 0.00 0.00 0.00 46 1013.5
20260902015007 85 269 0.0 0.0 0.00 0.00 0.00 45 1013.5
20260902014518 85 269 0.0 0.0 0.00 0.00 0.00 45 1013.4
20260902014013 85 269 0.0 0.0 0.00 0.00 0.00 44 1013.3
20260902013508 86 269 0.0 1.0 0.00 0.00 0.00 44 1013.3
20260902013024 86 269 0.0 1.0 0.00 0.00 0.00 44 1013.2
20260902012510 86 269 0.0 1.0 0.00 0.00 0.00 43 1013.2
20260902012012 87 269 0.0 1.0 0.00 0.00 0.00 43 1013.2
20260902011534 88 269 0.0 1.0 0.00 0.00 0.00 43 1013.2
20260902011017 88 269 0.0 2.0 0.00 0.00 0.00 42 1013.2
20260902010513 89 269 0.0 2.0 0.00 0.00 0.00 41 1013.3
20260902010031 90 212 0.0 0.0 0.00 0.00 0.00 40 1013.3
20260902005516 90 212 0.0 0.0 0.00 0.00 0.00 39 1013.3
20260902005016 91 212 0.0 4.0 0.00 0.00 0.00 39 1013.2
20260902004532 91 212 0.0 4.0 0.00 0.00 0.00 37 1013.2
20260902004017 92 259 0.0 2.0 0.00 0.00 0.00 37 1013.3
20260902003507 92 182 0.0 3.0 0.00 0.00 0.00 37 1013.3
20260902003028 93 248 0.0 3.0 0.00 0.00 0.00 37 1013.4
20260902002509 93 177 1.0 6.0 0.00 0.00 0.00 35 1013.4
20260902002012 93 267 2.0 6.0 0.00 0.00 0.00 35 1013.4
20260902001525 94 202 1.0 5.0 0.00 0.00 0.00 34 1013.4
20260902001014 94 262 2.0 5.0 0.00 0.00 0.00 34 1013.4
20260902000517 94 94 1.0 5.0 0.00 0.00 0.00 34 1013.4
20260902000029 94 267 1.0 4.0 0.00 0.00 0.00 34 1013.5
20260901235515 95 267 1.0 4.0 0.00 0.00 0.00 33 1013.4
20260901235017 95 280 0.0 7.0 0.00 0.00 0.00 33 1013.5
20260901234531 96 313 0.0 7.0 0.00 0.00 0.00 33 1013.4
20260901234015 96 227 1.0 9.0 0.00 0.00 0.00 32 1013.4
20260901233518 96 203 3.0 10.0 0.00 0.00 0.00 31 1013.4
20260901233031 97 188 3.0 10.0 0.00 0.00 0.00 32 1013.4
20260901232518 97 287 3.0 8.0 0.00 0.00 0.00 31 1013.4
20260901232008 97 309 1.0 7.0 0.00 0.00 0.00 30 1013.5
20260901231525 98 241 1.0 7.0 0.00 0.00 0.00 31 1013.5
20260901231009 97 286 1.0 7.0 0.00 0.00 0.00 31 1013.5
20260901230510 98 288 2.0 9.0 0.00 0.00 0.00 31 1013.5
20260901230005 98 171 2.0 9.0 0.00 0.00 0.00 31 1013.6
20260901225502 98 280 3.0 9.0 0.00 0.00 0.00 30 1013.5
20260901225002 98 271 2.0 8.0 0.00 0.00 0.00 30 1013.4
20260901224508 98 227 3.0 12.0 0.00 0.00 0.00 31 1013.4
20260901224005 99 273 2.0 12.0 0.00 0.00 0.00 30 1013.5
20260901223506 99 284 3.0 9.0 0.00 0.00 0.00 30 1013.4
20260901223012 99 281 3.0 9.0 0.00 0.00 0.00 29 1013.4
20260901222508 99 161 1.0 8.0 0.00 0.00 0.00 29 1013.4
20260901222006 99 248 2.0 8.0 0.00 0.00 0.00 29 1013.4
20260901221515 99 296 2.0 8.0 0.00 0.00 0.00 29 1013.5
20260901221013 100 200 2.0 9.0 0.00 0.00 0.00 29 1013.4
20260901220512 100 313 2.0 12.0 0.00 0.00 0.00 29 1013.6
20260901220026 99 262 1.0 12.0 0.00 0.00 0.00 28 1013.5
20260901215510 100 232 4.0 10.0 0.00 0.00 0.00 28 1013.5
20260901215013 100 257 2.0 9.0 0.00 0.00 0.00 29 1013.6
20260901214506 100 248 2.0 11.0 0.00 0.00 0.00 29 1013.7
20260901214003 100 213 3.0 11.0 0.00 0.00 0.00 29 1013.8
20260901213504 100 169 3.0 10.0 0.00 0.00 0.00 28 1013.7
20260901213010 100 271 4.0 11.0 0.00 0.00 0.00 27 1013.8
20260901212503 100 345 3.0 12.0 0.00 0.00 0.00 27 1013.9
20260901212007 100 297 3.0 12.0 0.00 0.00 0.00 27 1014.0
20260901211512 100 275 2.0 15.0 0.00 0.00 0.00 28 1014.0
20260901211007 100 277 4.0 15.0 0.00 0.00 0.00 27 1014.0
20260901210507 100 248 3.0 14.0 0.00 0.00 0.00 28 1014.1
20260901210022 100 311 1.0 8.0 0.00 0.00 0.00 28 1014.1
20260901205507 100 350 2.0 10.0 0.00 0.00 0.00 28 1014.1
20260901205014 100 214 4.0 10.0 0.00 0.00 0.00 28 1014.2
20260901204533 100 153 2.0 9.0 0.00 0.00 0.00 28 1014.4
20260901204012 100 248 4.0 9.0 0.00 0.00 0.00 27 1014.4
20260901203511 100 265 3.0 8.0 0.00 0.00 0.00 28 1014.4
20260901203008 100 332 2.0 8.0 0.00 0.00 0.00 29 1014.4
20260901202504 100 173 1.0 8.0 0.00 0.00 0.00 29 1014.5
20260901202003 100 271 2.0 8.0 0.00 0.00 0.00 29 1014.7
20260901201511 100 277 3.0 12.0 0.00 0.00 0.00 29 1014.7
20260901201007 99 267 4.0 12.0 0.00 0.00 0.00 29 1014.7
20260901200505 100 263 4.0 11.0 0.00 0.00 0.00 30 1014.9
20260901200015 99 269 1.0 11.0 0.00 0.00 0.00 30 1014.9
20260901195510 99 292 2.0 11.0 0.00 0.00 0.00 30 1015.0
20260901195008 100 190 1.0 9.0 0.00 0.00 0.00 30 1014.9
20260901194523 99 259 3.0 12.0 0.00 0.00 0.00 30 1015.1
20260901194012 99 232 2.0 12.0 0.00 0.00 0.00 33 1015.1
20260901193511 98 248 4.0 13.0 0.00 0.00 0.00 30 1015.2
20260901193032 99 276 4.0 13.0 0.00 0.00 0.00 30 1015.2
20260901192514 99 286 3.0 11.0 0.00 0.00 0.00 32 1015.3
20260901192016 99 273 2.0 11.0 0.00 0.00 0.00 32 1015.3
20260901191508 98 147 0.0 9.0 0.00 0.00 0.00 34 1015.3
20260901191003 97 234 1.0 7.0 0.00 0.00 0.00 34 1015.4
20260901190504 96 360 1.0 8.0 0.00 0.00 0.00 34 1015.4
20260901190012 97 253 3.0 8.0 0.00 0.00 0.00 32 1015.5
20260901185506 98 205 1.0 8.0 0.00 0.00 0.00 32 1015.5
20260901185007 98 248 1.0 8.0 0.00 0.00 0.00 32 1015.6
20260901184532 99 269 4.0 10.0 0.00 0.00 0.00 30 1015.5
20260901184009 99 250 3.0 10.0 0.00 0.00 0.00 31 1015.7
20260901183511 98 260 4.0 9.0 0.00 0.00 0.00 31 1015.6
20260901183022 98 255 2.0 9.0 0.00 0.00 0.00 33 1015.8
20260901182511 97 255 3.0 13.0 0.00 0.00 0.00 33 1015.9
20260901182015 97 252 6.0 13.0 0.00 0.00 0.00 34 1015.9
20260901181546 96 293 2.0 9.0 0.00 0.00 0.00 36 1016.0
20260901181013 95 251 2.0 10.0 0.00 0.00 0.00 35 1016.1
20260901180516 95 263 1.0 10.0 0.00 0.00 0.00 36 1016.1